Home > Weather > Samford > Past weeks

Flag for Australia Past Weather in Samford, Queensland, Australia — Yesterday and Last 2 Weeks

Now
52 °F

Clear.


Feels Like: 52 °F
Forecast: 43 / 68 °F
Wind: No wind

Location: Brisbane Airport M. O

Current Time: Jul 27, 2016 at 9:47:21 PM

Latest Report: Jul 27, 2016 at 9:00 PM


Visibility: 10 mi

Pressure: 30.12 "Hg

Humidity: 67%

Dew Point: 41 °F

Location of SamfordLocation

Past Weather in Samford — Graph

°F

Samford Temperature Yesterday

Maximum temperature yesterday: 66 °F (at 12:00 PM)
Minimum temperature yesterday: 54 °F (at 1:00 AM)
Average temperature yesterday: 60 °F

High & Low Weather Summary for the Past Weeks

 TemperatureHumidityPressure
High84 °F (Jul 23, 12:00 PM)100% (Jul 17, 3:00 AM)30.36 "Hg (Jul 17, 3:00 AM)
Low54 °F (Jul 14, 2:00 AM)21% (Jul 13, 3:00 PM)29.74 "Hg (Jul 23, 12:30 PM)
Average64 °F66%30.12 "Hg
* Reported Jul 12 8:00 PM — Jul 27 8:30 PM, Samford, Weather by CustomWeather, © 2016

Note: Actual official high and low records may vary slightly from our data, if they occured in-between our weather recording intervals... More about our weather records

Advertising

Samford Weather History for the Previous 24 Hours

Scroll right to see more
 ConditionsComfort  
Time TempWeatherWind HumidityBarometerVisibility
8:30 PM
Wed, Jul 27
55 °FClear.6 mph55%30.12 "Hg10 mi
8:00 PM54 °FClear.2 mph63%30.09 "Hg10 mi
7:00 PM55 °FClear.5 mph55%30.07 "Hg10 mi
6:30 PM59 °FClear.5 mph48%30.07 "Hg10 mi
6:00 PM61 °FClear.7 mph45%30.07 "Hg10 mi
5:30 PM63 °FClear.8 mph42%30.04 "Hg10 mi
5:00 PM64 °FClear.10 mph37%30.04 "Hg10 mi
4:30 PM64 °FClear.13 mph34%30.04 "Hg10 mi
4:00 PM68 °FSunny.9 mph28%30.01 "Hg10 mi
3:30 PM66 °FSunny.13 mph32%30.01 "Hg10 mi
3:00 PM66 °FSunny.14 mph35%30.01 "Hg10 mi
2:30 PM64 °FSunny.12 mph37%30.04 "Hg10 mi
2:00 PM64 °FSunny.16 mph34%30.04 "Hg10 mi
1:30 PM64 °FSunny.14 mph32%30.04 "Hg10 mi
1:00 PM66 °FSunny.13 mph30%30.04 "Hg10 mi
12:30 PM64 °FSunny.14 mph32%30.04 "Hg10 mi
12:00 PM64 °FSunny.12 mph32%30.07 "Hg10 mi
11:00 AM63 °FSunny.17 mph34%30.07 "Hg10 mi
10:30 AM63 °FSunny.13 mph37%30.09 "Hg10 mi
10:00 AM63 °FSunny.14 mph34%30.09 "Hg10 mi
9:30 AM63 °FSunny.12 mph34%30.09 "Hg10 mi
9:00 AM63 °FSunny.12 mph34%30.07 "Hg10 mi
8:30 AM63 °FSunny.10 mph34%30.07 "Hg10 mi
8:00 AM63 °FSunny.12 mph34%30.07 "Hg10 mi
7:30 AM63 °FSunny.12 mph37%30.07 "Hg10 mi
7:00 AM61 °FSunny.9 mph42%30.07 "Hg10 mi
6:30 AM61 °FSunny.7 mph39%30.07 "Hg10 mi
6:00 AM61 °FSunny.7 mph42%30.07 "Hg10 mi
5:30 AM59 °FClear.8 mph48%30.04 "Hg10 mi
5:00 AM59 °FClear.9 mph48%30.04 "Hg10 mi
4:30 AM57 °FClear.5 mph55%30.04 "Hg10 mi
4:00 AM59 °FClear.8 mph51%30.04 "Hg10 mi
3:30 AM59 °FClear.8 mph51%30.04 "Hg10 mi
3:00 AM59 °FClear.6 mph51%30.04 "Hg10 mi
2:00 AM59 °FClear.5 mph48%30.04 "HgN/A
1:30 AM59 °FPassing clouds.7 mph48%30.04 "HgN/A
1:00 AM59 °FClear.7 mph51%30.04 "Hg10 mi
12:30 AM59 °FClear.8 mph55%30.04 "Hg10 mi
12:00 AM59 °FClear.6 mph55%30.04 "Hg10 mi
11:30 PM
Tue, Jul 26
59 °FClear.6 mph55%30.04 "Hg10 mi
11:00 PM59 °FClear.1 mph55%30.04 "Hg10 mi
10:30 PM59 °FClear.5 mph59%30.04 "Hg10 mi
10:00 PM59 °FClear.6 mph59%30.04 "Hg10 mi
9:30 PM59 °FClear.2 mph59%30.04 "Hg10 mi
9:00 PM61 °FClear.7 mph52%30.07 "Hg10 mi
Weather by CustomWeather, © 2016

See weather overviewHow to use our weather pages